Fosston, MN

9:25 AM CDT on May 20, 2018 (GMT -0500)
Fosston Municipal

Weather History for KFSE - January, 2013

Change the Weather History Date:

Monday, January 7, 2013

  Actual Average Record
Temperature  
Mean Temperature 22 °F -  
Max Temperature 35 °F 9 °F 41 °F (2008)
Min Temperature 8 °F -12 °F -36 °F (1988)
Degree Days  
Heating Degree Days 44    
Moisture  
Dew Point 16 °F    
Average Humidity 82    
Maximum Humidity 100    
Minimum Humidity 56    
Precipitation  
Precipitation 0.00 in - - ()
Sea Level Pressure  
Sea Level Pressure 29.75 in    
Wind  
Wind Speed 15 mph (SW)    
Max Wind Speed 23 mph    
Max Gust Speed 30 mph    
Visibility 10 miles    
Events      
Averages and records for this station are not official NWS values.
T = Trace of Precipitation, MM = Missing Value Source: NWS Daily Summary

Daily Weather History Graph

Daily Weather History Graph

Search for Another Location

Airport or City:

Astronomy

Jan. 07, 2013 Rise Set
Actual Time 8:10 AM CST 4:49 PM CST
Civil Twilight 7:34 AM CST 5:24 PM CST
Nautical Twilight 6:56 AM CST 6:03 PM CST
Astronomical Twilight 6:18 AM CST 6:40 PM CST
Moon 3:30 AM CST (1/7) 1:04 PM CST (1/7)
Length of Visible Light 9h 49m
Length of Day
8h 38m
Waning Crescent, 22% of the Moon is Illuminated
Jan 7
Waning Crescent
Jan 11
New
Jan 18
First Quarter
Jan 26
Full
Feb 3
Last Quarter

Hourly Weather History & Observations

Time (CST) Temp. Windchill Dew Point Humidity Pressure Visibility Wind Dir Wind Speed Gust Speed Precip Events Conditions
12:15 AM 21.2 °F 6.0 °F 15.8 °F 80% 29.70 in 10.0 mi South 19.6 mph 25.3 mph N/A   Clear
12:35 AM 21.2 °F 4.9 °F 15.8 °F 80% 29.71 in 10.0 mi SSW 23.0 mph 28.8 mph N/A   Clear
12:55 AM 21.2 °F 4.9 °F 15.8 °F 80% 29.70 in 10.0 mi SSW 23.0 mph 29.9 mph N/A   Clear
1:16 AM 19.4 °F 3.6 °F 15.8 °F 86% 29.70 in 10.0 mi South 19.6 mph - N/A   Clear
1:35 AM 19.4 °F 3.2 °F 14.0 °F 80% 29.69 in 10.0 mi SSW 20.7 mph - N/A   Clear
1:55 AM 19.4 °F 2.8 °F 14.0 °F 80% 29.70 in 10.0 mi SSW 21.9 mph - N/A   Clear
2:16 AM 17.6 °F 0.5 °F 14.0 °F 86% 29.69 in 10.0 mi SSW 21.9 mph - N/A   Clear
2:35 AM 17.6 °F 2.7 °F 14.0 °F 86% 29.69 in 10.0 mi SSW 16.1 mph - N/A   Clear
2:55 AM 17.6 °F 1.7 °F 14.0 °F 86% 29.69 in 10.0 mi SSW 18.4 mph 24.2 mph N/A   Clear
3:15 AM 17.6 °F 0.9 °F 14.0 °F 86% 29.69 in 10.0 mi SSW 20.7 mph - N/A   Clear
3:35 AM 17.6 °F 1.7 °F 15.8 °F 93% 29.70 in 10.0 mi SSW 18.4 mph 25.3 mph N/A   Scattered Clouds
3:55 AM 17.6 °F 1.7 °F 15.8 °F 93% 29.69 in 10.0 mi SSW 18.4 mph 24.2 mph N/A   Mostly Cloudy
4:14 AM 17.6 °F 2.2 °F 15.8 °F 93% 29.68 in 10.0 mi SSW 17.3 mph - N/A   Overcast
4:35 AM 19.4 °F 4.1 °F 15.8 °F 86% 29.66 in 10.0 mi SSW 18.4 mph - N/A   Overcast
4:55 AM 19.4 °F 6.0 °F 15.8 °F 86% 29.67 in 10.0 mi SSW 13.8 mph - N/A   Scattered Clouds
5:15 AM 19.4 °F 7.2 °F 15.8 °F 86% 29.67 in 10.0 mi SSW 11.5 mph - N/A   Scattered Clouds
5:55 AM 19.4 °F 6.0 °F 15.8 °F 86% 29.66 in 10.0 mi SSW 13.8 mph - N/A   Clear
6:35 AM 17.6 °F 3.7 °F 14.0 °F 86% 29.67 in 10.0 mi SSW 13.8 mph - N/A   Clear
6:55 AM 17.6 °F 5.7 °F 14.0 °F 86% 29.68 in 10.0 mi SSW 10.4 mph - N/A   Clear
7:15 AM 17.6 °F 4.3 °F 14.0 °F 86% 29.68 in 10.0 mi SSW 12.7 mph - N/A   Clear
7:35 AM 17.6 °F 3.7 °F 15.8 °F 93% 29.68 in 10.0 mi SSW 13.8 mph - N/A   Clear
7:55 AM 19.4 °F 6.0 °F 15.8 °F 86% 29.67 in 10.0 mi SSW 13.8 mph - N/A   Clear
8:15 AM 19.4 °F 6.6 °F 15.8 °F 86% 29.68 in 10.0 mi SSW 12.7 mph - N/A   Clear
8:35 AM 21.2 °F 6.8 °F 17.6 °F 86% 29.68 in 10.0 mi SW 17.3 mph - N/A   Clear
9:15 AM 24.8 °F 12.4 °F 19.4 °F 80% 29.71 in 10.0 mi SW 15.0 mph - N/A   Clear
9:35 AM 24.8 °F 13.4 °F 21.2 °F 86% 29.71 in 10.0 mi SSW 12.7 mph - N/A   Clear
9:55 AM 26.6 °F 14.3 °F 21.2 °F 80% 29.71 in 10.0 mi SSW 16.1 mph - N/A   Clear
10:15 AM 26.6 °F 16.2 °F 21.2 °F 80% 29.73 in 10.0 mi SW 11.5 mph - N/A   Clear
10:35 AM 26.6 °F 15.2 °F 21.2 °F 80% 29.74 in 10.0 mi SW 13.8 mph 19.6 mph N/A   Clear
10:55 AM 26.6 °F 16.8 °F 21.2 °F 80% 29.74 in 10.0 mi SW 10.4 mph 20.7 mph N/A   Clear
11:15 AM 28.4 °F 17.5 °F 19.4 °F 69% 29.73 in 10.0 mi SW 13.8 mph 24.2 mph N/A   Clear
11:35 AM 28.4 °F 17.0 °F 21.2 °F 74% 29.74 in 10.0 mi WSW 15.0 mph - N/A   Clear
11:55 AM 28.4 °F 16.2 °F 19.4 °F 69% 29.73 in 10.0 mi WSW 17.3 mph 21.9 mph N/A   Clear
12:15 PM 30.2 °F 19.8 °F 21.2 °F 69% 29.73 in 10.0 mi WSW 13.8 mph - N/A   Clear
12:35 PM 32.0 °F 20.8 °F 21.2 °F 64% 29.72 in 10.0 mi SW 17.3 mph - N/A   Clear
1:15 PM 33.8 °F 23.5 °F 21.2 °F 60% 29.73 in 10.0 mi WSW 16.1 mph - N/A   Clear
1:35 PM 33.8 °F 27.0 °F 23.0 °F 65% 29.74 in 10.0 mi WSW 8.1 mph - N/A   Clear
1:55 PM 35.6 °F 28.6 °F 23.0 °F 60% 29.74 in 10.0 mi WSW 9.2 mph - N/A   Clear
2:15 PM 35.6 °F 26.2 °F 23.0 °F 60% 29.74 in 10.0 mi West 15.0 mph - N/A   Clear
2:35 PM 35.6 °F 27.5 °F 23.0 °F 60% 29.75 in 10.0 mi West 11.5 mph - N/A   Clear
2:55 PM 35.6 °F 28.0 °F 23.0 °F 60% 29.76 in 10.0 mi WSW 10.4 mph 20.7 mph N/A   Clear
3:15 PM 35.6 °F 27.5 °F 23.0 °F 60% 29.77 in 10.0 mi West 11.5 mph - N/A   Clear
3:35 PM 35.6 °F 27.5 °F 21.2 °F 56% 29.77 in 10.0 mi West 11.5 mph - N/A   Clear
3:55 PM 33.8 °F 26.4 °F 21.2 °F 60% 29.78 in 10.0 mi WSW 9.2 mph - N/A   Clear
4:15 PM 32.0 °F 24.2 °F 21.2 °F 64% 29.78 in 10.0 mi WSW 9.2 mph - N/A   Clear
4:35 PM 30.2 °F 22.6 °F 21.2 °F 69% 29.79 in 10.0 mi WSW 8.1 mph - N/A   Clear
5:15 PM 21.2 °F 11.7 °F 17.6 °F 86% 29.81 in 10.0 mi SSW 8.1 mph - N/A   Clear
5:35 PM 19.4 °F 11.5 °F 15.8 °F 86% 29.81 in 10.0 mi South 5.8 mph - N/A   Clear
5:55 PM 17.6 °F 8.2 °F 14.0 °F 86% 29.82 in 10.0 mi South 6.9 mph - N/A   Clear
6:15 PM 17.6 °F 9.3 °F 15.8 °F 93% 29.82 in 10.0 mi SSW 5.8 mph - N/A   Clear
6:35 PM 15.8 °F 4.2 °F 14.0 °F 93% 29.82 in 10.0 mi SSW 9.2 mph - N/A   Clear
6:55 PM 15.8 °F 4.2 °F 15.8 °F 100% 29.82 in 10.0 mi SSW 9.2 mph - N/A   Clear
7:15 PM 15.8 °F 5.1 °F 14.0 °F 93% 29.83 in 10.0 mi SW 8.1 mph - N/A   Clear
7:35 PM 15.8 °F 4.2 °F 12.2 °F 86% 29.84 in 10.0 mi SW 9.2 mph - N/A   Clear
7:55 PM 14.0 °F 2.0 °F 10.4 °F 86% 29.84 in 10.0 mi SW 9.2 mph - N/A   Scattered Clouds
8:15 PM 14.0 °F 6.5 °F 10.4 °F 86% 29.85 in 10.0 mi SSW 4.6 mph - N/A   Scattered Clouds
8:35 PM 12.2 °F - 10.4 °F 92% 29.86 in 10.0 mi Calm Calm - N/A   Scattered Clouds
8:55 PM 12.2 °F 2.9 °F 10.4 °F 92% 29.86 in 10.0 mi SSW 5.8 mph - N/A   Clear
9:15 PM 10.4 °F -1.5 °F 8.6 °F 92% 29.86 in 10.0 mi SSW 8.1 mph - N/A   Clear
9:35 PM 10.4 °F 0.8 °F 8.6 °F 92% 29.87 in 10.0 mi South 5.8 mph - N/A   Clear
9:55 PM 10.4 °F 0.8 °F 10.4 °F 100% 29.87 in 10.0 mi SSW 5.8 mph - N/A   Clear
10:15 PM 10.4 °F - 8.6 °F 92% 29.88 in 10.0 mi Calm Calm - N/A   Clear
10:35 PM 10.4 °F - 8.6 °F 92% 29.87 in 10.0 mi Calm Calm - N/A   Clear
10:55 PM 8.6 °F -1.3 °F 6.8 °F 92% 29.87 in 10.0 mi South 5.8 mph - N/A   Clear
11:15 PM 10.4 °F - 8.6 °F 92% 29.87 in 10.0 mi Calm Calm - N/A   Clear
11:35 PM 10.4 °F - 8.6 °F 92% 29.86 in 10.0 mi Calm Calm - N/A   Clear
11:55 PM 8.6 °F - 6.8 °F 92% 29.86 in 10.0 mi Calm Calm - N/A   Clear